Preview of NWS' New Version of Forecast
This preview is not operational and should not be used for support decisions.

Regional Weather Roundup (RWR)

Issued by National Weather Service (NWS)

                            
000
ASUS44 KMEG 181600
RWRTN 
TENNESSEE HOURLY STATE WEATHER ROUNDUP
NATIONAL WEATHER SERVICE MEMPHIS TN
1100 AM CDT TUE JUN 18 2019

TNZ002-004-019-021-049-052-054-088>092-181700-
WEST TENNESSEE
  
CITY           SKY/WX    TMP DP  RH WIND       PRES   REMARKS
MEMPHIS INTL   CLOUDY    75  73  93 SE6       29.93S                  
NWS MEMPHIS      N/A     75 N/A N/A MISG        N/A                   
JACKSON        CLOUDY    74  72  93 S7        29.95S                  
DYERSBURG      CLOUDY    78  71  79 S7        29.94R                  
$$

TNZ008-025-027-028-033-062-065-066-181700-
NORTH MIDDLE TENNESSEE
  
CITY           SKY/WX    TMP DP  RH WIND       PRES   REMARKS
NASHVILLE      PTSUNNY   77  71  82 SE5       29.97S                  
CLARKSVILLE    CLOUDY    76  71  85 SW7       29.94F                  
SMYRNA         PTSUNNY   76  73  91 S7        29.97F                  
CROSSVILLE     CLOUDY    71  68  90 W6        30.04F                  
$$

TNZ061-075-076-078-094-096-097-181700-
SOUTH MIDDLE TENNESSEE
  
CITY           SKY/WX    TMP DP  RH WIND       PRES   REMARKS
$$

TNZ017-018-042-046-047-181700-
NORTHEAST TENNESSEE
  
CITY           SKY/WX    TMP DP  RH WIND       PRES   REMARKS
TRI CITIES     CLOUDY    78  68  71 CALM      30.05S                  
$$

TNZ012-013-036-069-073-074-181700-
CENTRAL EAST TENNESSEE
  
CITY           SKY/WX    TMP DP  RH WIND       PRES   REMARKS
KNOXVILLE      RAIN      72  69  90 S6        30.02R VSB 1            
OAK RIDGE      LGT RAIN  74  70  87 CALM      30.02  FOG              
$$

TNZ083-085-099-181700-
SOUTHEAST TENNESSEE
  
CITY           SKY/WX    TMP DP  RH WIND       PRES   REMARKS
CHATTANOOGA    CLOUDY    74  72  93 CALM      29.99F                  
$$

SKY/WX REPORTED AS FAIR MEANS FEW OR NO CLOUDS BELOW
12 THOUSAND FEET.